Location: downtown San Diego
(32.7310°N, 117.1990°W)
Time: 19:06:03
(UTC-07:00)

Lacrosse 5 - Pass Details

Date: 14 June 2018
Orbit: 714 x 724 km, 57.0° (Epoch: 10 July)

Event Time Altitude Azimuth Distance (km) Brightness Sun altitude
Exits shadow 22:02:02 11° 68° (ENE) 2,104 4.1 -21.2°
Drops below altitude 10° 22:02:20 10° 66° (ENE) 2,196 4.2 -21.3°
Sets 22:05:04 0° 53° (NE) 3,118 5.1 -21.6°
